CW6641 Weather Reports


Display with metric or nautical units.
time (UTC)temp
F
wind
direction
speed
MPH
gust
MPH
rain 1hr
in
rain 24hr
in
rain mn
in
humidity
%
barometer
mb
20260903222250 96 0.0 0.0 0.00 0.00 0.00 44 1014.0
20260903221745 97 0.0 0.0 0.00 0.00 0.00 43 1013.9
20260903221243 97 0.0 0.0 0.00 0.00 0.00 42 1014.0
20260903220742 97 0.0 0.0 0.00 0.00 0.00 43 1014.0
20260903220237 97 0.0 0.0 0.00 0.00 0.00 43 1014.1
20260903215730 97 0.0 0.0 0.00 0.00 0.00 42 1014.2
20260903215226 97 0.0 0.0 0.00 0.00 0.00 43 1014.4
20260903214724 97 0.0 0.0 0.00 0.00 0.00 42 1014.3
20260903214221 97 0.0 0.0 0.00 0.00 0.00 42 1014.0
20260903213714 97 0.0 0.0 0.00 0.00 0.00 42 1014.1
20260903213210 97 0.0 0.0 0.00 0.00 0.00 41 1014.4
20260903212706 97 0.0 0.0 0.00 0.00 0.00 42 1014.5
20260903212202 96 0.0 0.0 0.00 0.00 0.00 43 1014.5
20260903211655 96 0.0 0.0 0.00 0.00 0.00 45 1014.4
20260903211153 96 0.0 0.0 0.00 0.00 0.00 43 1014.5
20260903210648 97 0.0 0.0 0.00 0.00 0.00 46 1014.5
20260903210144 97 0.0 0.0 0.00 0.00 0.00 44 1014.7
20260903205643 97 0.0 0.0 0.00 0.00 0.00 43 1014.6
20260903205142 97 0.0 0.0 0.00 0.00 0.00 42 1014.6
20260903204638 98 0.0 0.0 0.00 0.00 0.00 42 1014.6
20260903204134 98 0.0 0.0 0.00 0.00 0.00 43 1015.0
20260903203629 98 0.0 0.0 0.00 0.00 0.00 42 1014.7
20260903203124 98 0.0 0.0 0.00 0.00 0.00 41 1014.7
20260903202619 98 0.0 0.0 0.00 0.00 0.00 41 1015.0
20260903202114 98 0.0 0.0 0.00 0.00 0.00 43 1015.1
20260903201609 98 0.0 0.0 0.00 0.00 0.00 43 1015.1
20260903201108 98 0.0 0.0 0.00 0.00 0.00 42 1015.1
20260903200603 98 0.0 0.0 0.00 0.00 0.00 43 1014.9
20260903200058 98 0.0 0.0 0.00 0.00 0.00 42 1015.2
20260903195549 98 0.0 0.0 0.00 0.00 0.00 42 1015.4
20260903195044 99 0.0 0.0 0.00 0.00 0.00 41 1015.1
20260903194539 99 0.0 0.0 0.00 0.00 0.00 43 1015.5
20260903194034 98 0.0 0.0 0.00 0.00 0.00 43 1015.2
20260903193530 98 0.0 0.0 0.00 0.00 0.00 44 1015.4
20260903193025 98 0.0 0.0 0.00 0.00 0.00 43 1015.4
20260903192517 98 0.0 0.0 0.00 0.00 0.00 43 1015.6
20260903192017 98 0.0 0.0 0.00 0.00 0.00 43 1015.5
20260903191513 97 0.0 0.0 0.00 0.00 0.00 44 1015.5
20260903191013 97 0.0 0.0 0.00 0.00 0.00 43 1015.5
20260903190507 97 0.0 0.0 0.00 0.00 0.00 45 1015.6
20260903190001 96 0.0 0.0 0.00 0.00 0.00 45 1015.6
20260903185457 96 0.0 0.0 0.00 0.00 0.00 46 1015.7
20260903184956 95 0.0 0.0 0.00 0.00 0.00 47 1015.8
20260903184453 95 0.0 0.0 0.00 0.00 0.00 47 1016.0
20260903183948 95 0.0 0.0 0.00 0.00 0.00 45 1015.8
20260903183442 95 0.0 0.0 0.00 0.00 0.00 47 1016.1
20260903182942 96 0.0 0.0 0.00 0.00 0.00 45 1015.8
20260903182440 96 0.0 0.0 0.00 0.00 0.00 46 1015.9
20260903181936 96 0.0 0.0 0.00 0.00 0.00 46 1015.9
20260903181430 96 0.0 0.0 0.00 0.00 0.00 46 1016.0
20260903180930 96 0.0 0.0 0.00 0.00 0.00 46 1016.1
20260903180425 96 0.0 0.0 0.00 0.00 0.00 46 1016.1
20260903175924 96 0.0 0.0 0.00 0.00 0.00 46 1016.1
20260903175419 95 0.0 0.0 0.00 0.00 0.00 47 1016.1
20260903174913 95 0.0 0.0 0.00 0.00 0.00 48 1016.2
20260903174409 95 0.0 0.0 0.00 0.00 0.00 49 1016.3
20260903173909 94 0.0 0.0 0.00 0.00 0.00 49 1016.4
20260903173403 95 0.0 0.0 0.00 0.00 0.00 49 1016.4
20260903172859 95 0.0 0.0 0.00 0.00 0.00 49 1016.5
20260903172359 95 0.0 0.0 0.00 0.00 0.00 49 1016.4
20260903171855 95 0.0 0.0 0.00 0.00 0.00 50 1016.4
20260903171350 95 0.0 0.0 0.00 0.00 0.00 50 1016.6
20260903170849 95 0.0 0.0 0.00 0.00 0.00 50 1016.6
20260903170344 94 0.0 0.0 0.00 0.00 0.00 50 1016.8
20260903165842 93 0.0 0.0 0.00 0.00 0.00 52 1016.8
20260903165337 93 0.0 0.0 0.00 0.00 0.00 52 1016.8
20260903164832 93 0.0 0.0 0.00 0.00 0.00 53 1017.0
20260903164327 93 0.0 0.0 0.00 0.00 0.00 54 1016.9
20260903163826 92 0.0 0.0 0.00 0.00 0.00 54 1016.9
20260903163323 92 0.0 0.0 0.00 0.00 0.00 57 1017.1
20260903162818 92 0.0 0.0 0.00 0.00 0.00 56 1017.0
20260903162315 92 0.0 0.0 0.00 0.00 0.00 56 1017.0
20260903161811 92 0.0 0.0 0.00 0.00 0.00 54 1017.2
20260903161306 92 0.0 0.0 0.00 0.00 0.00 57 1017.2
20260903160802 92 0.0 0.0 0.00 0.00 0.00 56 1017.3
20260903160301 91 0.0 0.0 0.00 0.00 0.00 57 1017.2
20260903155759 91 0.0 0.0 0.00 0.00 0.00 58 1017.5
20260903155254 91 0.0 0.0 0.00 0.00 0.00 58 1017.4
20260903154749 91 0.0 0.0 0.00 0.00 0.00 59 1017.4
20260903154246 90 0.0 0.0 0.00 0.00 0.00 60 1017.2
20260903153741 90 0.0 0.0 0.00 0.00 0.00 60 1017.5
20260903153237 90 0.0 0.0 0.00 0.00 0.00 62 1017.3
20260903152733 89 0.0 0.0 0.00 0.00 0.00 63 1017.4
20260903152229 89 0.0 0.0 0.00 0.00 0.00 62 1017.2
20260903151728 89 0.0 0.0 0.00 0.00 0.00 64 1017.4
20260903151224 88 0.0 0.0 0.00 0.00 0.00 65 1017.4
20260903150719 88 0.0 0.0 0.00 0.00 0.00 63 1017.3
20260903150213 87 0.0 0.0 0.00 0.00 0.00 66 1017.2
20260903145708 87 0.0 0.0 0.00 0.00 0.00 66 1017.3
20260903145203 87 0.0 0.0 0.00 0.00 0.00 68 1017.6
20260903144702 86 0.0 0.0 0.00 0.00 0.00 68 1017.3
20260903144158 86 0.0 0.0 0.00 0.00 0.00 68 1017.6
20260903143654 85 0.0 0.0 0.00 0.00 0.00 69 1017.3
20260903143149 85 0.0 0.0 0.00 0.00 0.00 70 1017.5
20260903142645 84 0.0 0.0 0.00 0.00 0.00 71 1017.4
20260903142141 84 0.0 0.0 0.00 0.00 0.00 73 1017.4
20260903141636 83 0.0 0.0 0.00 0.00 0.00 72 1017.4
20260903141131 83 0.0 0.0 0.00 0.00 0.00 73 1017.5
20260903140627 82 0.0 0.0 0.00 0.00 0.00 74 1017.4
20260903140122 82 0.0 0.0 0.00 0.00 0.00 75 1017.4
20260903135618 82 0.0 0.0 0.00 0.00 0.00 76 1017.4
20260903135113 81 0.0 0.0 0.00 0.00 0.00 76 1017.3
20260903134611 81 0.0 0.0 0.00 0.00 0.00 76 1017.6
20260903134108 80 0.0 0.0 0.00 0.00 0.00 76 1017.5
20260903133605 80 0.0 0.0 0.00 0.00 0.00 77 1017.5
20260903133101 80 0.0 0.0 0.00 0.00 0.00 77 1017.7
20260903132556 80 0.0 0.0 0.00 0.00 0.00 77 1017.6
20260903132051 79 0.0 0.0 0.00 0.00 0.00 78 1017.6
20260903131550 79 0.0 0.0 0.00 0.00 0.00 78 1017.7
20260903131049 79 0.0 0.0 0.00 0.00 0.00 79 1017.6
20260903130544 78 0.0 0.0 0.00 0.00 0.00 79 1017.7
20260903130039 78 0.0 0.0 0.00 0.00 0.00 81 1017.5
20260903125537 77 0.0 0.0 0.00 0.00 0.00 82 1017.6
20260903125033 77 0.0 0.0 0.00 0.00 0.00 83 1017.6
20260903124532 77 0.0 0.0 0.00 0.00 0.00 84 1017.6
20260903124027 76 0.0 0.0 0.00 0.00 0.00 85 1017.6
20260903123526 75 0.0 0.0 0.00 0.00 0.00 85 1017.7
20260903123025 75 0.0 0.0 0.00 0.00 0.00 84 1017.5
20260903122525 75 0.0 0.0 0.00 0.00 0.00 85 1017.7
20260903122025 75 0.0 0.0 0.00 0.00 0.00 85 1017.7
20260903121520 75 0.0 0.0 0.00 0.00 0.00 85 1017.6
20260903121016 75 0.0 0.0 0.00 0.00 0.00 85 1017.4
20260903120514 75 0.0 0.0 0.00 0.00 0.00 85 1017.4
20260903120009 75 0.0 0.0 0.00 0.00 0.00 85 1017.1
20260903115508 75 0.0 0.0 0.00 0.00 0.00 85 1017.3
20260903115008 75 0.0 0.0 0.00 0.00 0.00 85 1017.4
20260903114503 75 0.0 0.0 0.00 0.00 0.00 85 1017.3
20260903113959 75 0.0 0.0 0.00 0.00 0.00 85 1017.4
20260903113454 75 0.0 0.0 0.00 0.00 0.00 85 1017.3
20260903112950 75 0.0 0.0 0.00 0.00 0.00 85 1017.3
20260903112446 75 0.0 0.0 0.00 0.00 0.00 85 1017.4
20260903111945 75 0.0 0.0 0.00 0.00 0.00 85 1017.2
20260903111439 75 0.0 0.0 0.00 0.00 0.00 85 1017.3
20260903110935 75 0.0 0.0 0.00 0.00 0.00 84 1017.1
20260903110431 75 0.0 0.0 0.00 0.00 0.00 85 1017.1
20260903105925 75 0.0 0.0 0.00 0.00 0.00 84 1017.1
20260903105421 75 0.0 0.0 0.00 0.00 0.00 84 1017.1
20260903104920 75 0.0 0.0 0.00 0.00 0.00 84 1017.1
20260903104414 75 0.0 0.0 0.00 0.00 0.00 84 1016.8
20260903103911 75 0.0 0.0 0.00 0.00 0.00 84 1017.2
20260903103407 75 0.0 0.0 0.00 0.00 0.00 84 1017.0
20260903102902 75 0.0 0.0 0.00 0.00 0.00 84 1016.8
20260903102356 75 0.0 0.0 0.00 0.00 0.00 84 1017.0
20260903101851 75 0.0 0.0 0.00 0.00 0.00 84 1017.0
20260903101346 75 0.0 0.0 0.00 0.00 0.00 84 1016.9
20260903100842 75 0.0 0.0 0.00 0.00 0.00 84 1017.0
20260903100342 75 0.0 0.0 0.00 0.00 0.00 83 1017.0
20260903095838 75 0.0 0.0 0.00 0.00 0.00 83 1017.1
20260903095332 75 0.0 0.0 0.00 0.00 0.00 83 1016.8
20260903094828 75 0.0 0.0 0.00 0.00 0.00 83 1017.0
20260903094322 75 0.0 0.0 0.00 0.00 0.00 83 1016.8
20260903093818 75 0.0 0.0 0.00 0.00 0.00 83 1016.8
20260903093313 75 0.0 0.0 0.00 0.00 0.00 83 1016.7
20260903092808 75 0.0 0.0 0.00 0.00 0.00 83 1016.6
20260903092306 75 0.0 0.0 0.00 0.00 0.00 83 1016.7
20260903091801 75 0.0 0.0 0.00 0.00 0.00 83 1016.8
20260903091255 75 0.0 0.0 0.00 0.00 0.00 82 1016.9
20260903090752 75 0.0 0.0 0.00 0.00 0.00 82 1016.9
20260903090251 75 0.0 0.0 0.00 0.00 0.00 82 1016.8
20260903085750 75 0.0 0.0 0.00 0.00 0.00 82 1016.8
20260903085249 75 0.0 0.0 0.00 0.00 0.00 82 1016.4
20260903084748 75 0.0 0.0 0.00 0.00 0.00 82 1016.6
20260903084237 75 0.0 0.0 0.00 0.00 0.00 82 1016.6
20260903083733 75 0.0 0.0 0.00 0.00 0.00 82 1016.7
20260903083227 76 0.0 0.0 0.00 0.00 0.00 82 1016.6
20260903082726 76 0.0 0.0 0.00 0.00 0.00 81 1016.5
20260903082222 76 0.0 0.0 0.00 0.00 0.00 81 1016.5
20260903081722 76 0.0 0.0 0.00 0.00 0.00 81 1016.7
20260903081218 76 0.0 0.0 0.00 0.00 0.00 81 1016.7
20260903080714 76 0.0 0.0 0.00 0.00 0.00 81 1016.6
20260903080212 76 0.0 0.0 0.00 0.00 0.00 81 1016.6
20260903075710 76 0.0 0.0 0.00 0.00 0.00 81 1016.5
20260903075206 76 0.0 0.0 0.00 0.00 0.00 81 1016.3
20260903074704 76 0.0 0.0 0.00 0.00 0.00 81 1016.5
20260903074200 76 0.0 0.0 0.00 0.00 0.00 81 1016.3
20260903073655 76 0.0 0.0 0.00 0.00 0.00 81 1016.4
20260903073150 76 0.0 0.0 0.00 0.00 0.00 81 1016.2
20260903072646 76 0.0 0.0 0.00 0.00 0.00 80 1016.4
20260903072143 76 0.0 0.0 0.00 0.00 0.00 80 1016.5
20260903071639 77 0.0 0.0 0.00 0.00 0.00 80 1016.4
20260903071134 77 0.0 0.0 0.00 0.00 0.00 80 1016.3
20260903070634 77 0.0 0.0 0.00 0.00 0.00 80 1016.6
20260903070129 77 0.0 0.0 0.00 0.00 0.00 80 1016.2
20260903065629 77 0.0 0.0 0.00 0.00 0.00 79 1016.2
20260903065123 77 0.0 0.0 0.00 0.00 0.00 78 1016.3
20260903064618 77 0.0 0.0 0.00 0.00 0.00 78 1016.2
20260903064114 77 0.0 0.0 0.00 0.00 0.00 78 1016.2
20260903063609 77 0.0 0.0 0.00 0.00 0.00 77 1016.3
20260903063104 77 0.0 0.0 0.00 0.00 0.00 77 1016.1
20260903062559 77 0.0 0.0 0.00 0.00 0.00 77 1016.5
20260903062055 78 0.0 0.0 0.00 0.00 0.00 77 1016.2
20260903061550 78 0.0 0.0 0.00 0.00 0.00 77 1016.3
20260903061049 78 0.0 0.0 0.00 0.00 0.00 77 1016.5
20260903060549 78 0.0 0.0 0.00 0.00 0.00 77 1016.4
20260903060044 78 0.0 0.0 0.00 0.00 0.00 76 1016.5
20260903055542 79 0.0 0.0 0.00 0.00 0.00 75 1016.4
20260903055041 79 0.0 0.0 0.00 0.00 0.00 75 1016.4
20260903054536 79 0.0 0.0 0.00 0.00 0.00 75 1016.5
20260903054031 79 0.0 0.0 0.00 0.00 0.00 74 1016.3
20260903053526 80 0.0 0.0 0.00 0.00 0.00 73 1016.4
20260903053023 80 0.0 0.0 0.00 0.00 0.00 73 1016.4
20260903052518 80 0.0 0.0 0.00 0.00 0.00 73 1016.6
20260903052014 80 0.0 0.0 0.00 0.00 0.00 72 1016.3
20260903051508 80 0.0 0.0 0.00 0.00 0.00 71 1016.4
20260903051004 80 0.0 0.0 0.00 0.00 0.00 71 1016.5
20260903050503 81 0.0 0.0 0.00 0.00 0.00 71 1016.4
20260903045957 81 0.0 0.0 0.00 0.00 0.00 71 1016.5
20260903045453 81 0.0 0.0 0.00 0.00 0.00 70 1016.2
20260903044949 82 0.0 0.0 0.00 0.00 0.00 70 1016.3
20260903044445 82 0.0 0.0 0.00 0.00 0.00 69 1016.3
20260903043941 82 0.0 0.0 0.00 0.00 0.00 69 1016.1
20260903043437 82 0.0 0.0 0.00 0.00 0.00 69 1016.4
20260903042935 82 0.0 0.0 0.00 0.00 0.00 70 1016.2
20260903042430 81 0.0 0.0 0.00 0.00 0.00 70 1016.2
20260903041926 81 0.0 0.0 0.00 0.00 0.00 70 1016.4
20260903041422 81 0.0 0.0 0.00 0.00 0.00 70 1016.3
20260903040918 81 0.0 0.0 0.00 0.00 0.00 71 1016.1
20260903040417 82 0.0 0.0 0.00 0.00 0.00 71 1016.5
20260903035913 82 0.0 0.0 0.00 0.00 0.00 69 1016.1
20260903035408 82 0.0 0.0 0.00 0.00 0.00 69 1016.4
20260903034903 82 0.0 0.0 0.00 0.00 0.00 69 1016.2
20260903034358 82 0.0 0.0 0.00 0.00 0.00 68 1016.2
20260903033853 82 0.0 0.0 0.00 0.00 0.00 68 1016.2
20260903033348 82 0.0 0.0 0.00 0.00 0.00 68 1016.5
20260903032848 82 0.0 0.0 0.00 0.00 0.00 68 1016.2
20260903032344 82 0.0 0.0 0.00 0.00 0.00 68 1016.2
20260903031839 83 0.0 0.0 0.00 0.00 0.00 67 1016.3
20260903031338 83 0.0 0.0 0.00 0.00 0.00 68 1016.3
20260903030834 83 0.0 0.0 0.00 0.00 0.00 67 1016.4
20260903030330 83 0.0 0.0 0.00 0.00 0.00 66 1016.3
20260903025826 83 0.0 0.0 0.00 0.00 0.00 67 1016.4
20260903025321 83 0.0 0.0 0.00 0.00 0.00 66 1016.3
20260903024821 83 0.0 0.0 0.00 0.00 0.00 66 1016.5
20260903024320 84 0.0 0.0 0.00 0.00 0.00 66 1016.3
20260903023816 84 0.0 0.0 0.00 0.00 0.00 66 1016.2
20260903023311 84 0.0 0.0 0.00 0.00 0.00 66 1016.2
20260903022806 84 0.0 0.0 0.00 0.00 0.00 66 1016.3
20260903022306 84 0.0 0.0 0.00 0.00 0.00 66 1016.2
20260903021759 84 0.0 0.0 0.00 0.00 0.00 66 1016.4
20260903021255 84 0.0 0.0 0.00 0.00 0.00 65 1016.2
20260903020755 84 0.0 0.0 0.00 0.00 0.00 65 1016.2
20260903020249 84 0.0 0.0 0.00 0.00 0.00 65 1016.0
20260903015744 84 0.0 0.0 0.00 0.00 0.00 64 1016.0
20260903015240 84 0.0 0.0 0.00 0.00 0.00 64 1016.0
20260903014735 84 0.0 0.0 0.00 0.00 0.00 64 1016.1
20260903014234 85 0.0 0.0 0.00 0.00 0.00 64 1016.2
20260903013730 85 0.0 0.0 0.00 0.00 0.00 64 1016.1
20260903013229 86 0.0 0.0 0.00 0.00 0.00 62 1016.1
20260903012728 86 0.0 0.0 0.00 0.00 0.00 62 1015.9
20260903012228 86 0.0 0.0 0.00 0.00 0.00 61 1016.2
20260903011722 87 0.0 0.0 0.00 0.00 0.00 60 1016.0
20260903011221 87 0.0 0.0 0.00 0.00 0.00 60 1016.0
20260903010717 88 0.0 0.0 0.00 0.00 0.00 59 1015.8
20260903010217 88 0.0 0.0 0.00 0.00 0.00 58 1015.7
20260903005716 88 0.0 0.0 0.00 0.00 0.00 57 1015.7
20260903005211 89 0.0 0.0 0.00 0.00 0.00 57 1015.7
20260903004707 89 0.0 0.0 0.00 0.00 0.00 56 1015.7
20260903004202 90 0.0 0.0 0.00 0.00 0.00 55 1015.7
20260903003658 91 0.0 0.0 0.00 0.00 0.00 54 1015.9
20260903003153 91 0.0 0.0 0.00 0.00 0.00 53 1015.8
20260903002648 91 0.0 0.0 0.00 0.00 0.00 52 1015.7
20260903002142 92 0.0 0.0 0.00 0.00 0.00 51 1015.7
20260903001637 92 0.0 0.0 0.00 0.00 0.00 50 1015.7
20260903001131 92 0.0 0.0 0.00 0.00 0.00 49 1015.6
20260903000627 92 0.0 0.0 0.00 0.00 0.00 49 1015.9
20260903000126 92 0.0 0.0 0.00 0.00 0.00 49 1015.9
20260902235625 93 0.0 0.0 0.00 0.00 0.00 49 1015.9
20260902235120 93 0.0 0.0 0.00 0.00 0.00 48 1015.8
20260902234614 93 0.0 0.0 0.00 0.00 0.00 48 1015.9
20260902234113 93 0.0 0.0 0.00 0.00 0.00 48 1015.8
20260902233608 93 0.0 0.0 0.00 0.00 0.00 47 1015.8
20260902233102 94 0.0 0.0 0.00 0.00 0.00 47 1015.8
20260902232556 94 0.0 0.0 0.00 0.00 0.00 47 1015.7
20260902232055 94 0.0 0.0 0.00 0.00 0.00 47 1015.8
20260902231550 94 0.0 0.0 0.00 0.00 0.00 46 1015.7
20260902231045 95 0.0 0.0 0.00 0.00 0.00 46 1015.7
20260902230545 95 0.0 0.0 0.00 0.00 0.00 46 1015.7
20260902230044 95 0.0 0.0 0.00 0.00 0.00 45 1015.8
20260902225539 95 0.0 0.0 0.00 0.00 0.00 45 1015.9
20260902225039 95 0.0 0.0 0.00 0.00 0.00 46 1015.6
20260902224537 95 0.0 0.0 0.00 0.00 0.00 46 1016.0
20260902224034 96 0.0 0.0 0.00 0.00 0.00 45 1015.8
20260902223530 96 0.0 0.0 0.00 0.00 0.00 45 1015.9
20260902223028 96 0.0 0.0 0.00 0.00 0.00 45 1016.0
20260902222527 96 0.0 0.0 0.00 0.00 0.00 45 1015.8